Location: Newark
(44.8699°N, 13.8438°E)
Time: 05:04:54
(UTC+00:00)

Envisat - Pass Details

Date: 23 September 2019
Orbit: 764 x 766 km, 98.1° (Epoch: 16 October)

Event Time Altitude Azimuth Distance (km) Brightness Sun altitude
Rises 17:30:53 0° 177° (S) 3,219 6.1 -6.1°
Reaches altitude 10° 17:33:13 10° 182° (S) 2,297 5.4 -6.5°
Maximum altitude 17:38:11 55° 260° (W) 919 3.9 -7.4°
Drops below altitude 10° 17:43:11 10° 338° (NNW) 2,313 5.9 -8.3°
Sets 17:45:33 0° 343° (NNW) 3,243 6.6 -8.7°
